College Park, MD

8:43 AM EDT on May 20, 2018 (GMT -0400)
College Park

Weather History for KCGS - March, 2014

Change the Weather History Date:

Friday, March 7, 2014

  Actual Average Record
Temperature  
Mean Temperature 38 °F -  
Max Temperature 45 °F 50 °F 75 °F (1961)
Min Temperature 31 °F 32 °F 10 °F (2015)
Degree Days  
Heating Degree Days 27    
Moisture  
Dew Point 27 °F    
Average Humidity 67    
Maximum Humidity 75    
Minimum Humidity 53    
Precipitation  
Precipitation 0.00 in - - ()
Sea Level Pressure  
Sea Level Pressure 30.14 in    
Wind  
Wind Speed 6 mph (NNE)    
Max Wind Speed 10 mph    
Max Gust Speed 16 mph    
Visibility 10 miles    
Events      
Averages and records for this station are not official NWS values.
T = Trace of Precipitation, MM = Missing Value Source: NWS Daily Summary

Daily Weather History Graph

Daily Weather History Graph

Search for Another Location

Airport or City:

Astronomy

Mar. 07, 2014 Rise Set
Actual Time 6:31 AM EST 6:06 PM EST
Civil Twilight 6:04 AM EST 6:33 PM EST
Nautical Twilight 5:33 AM EST 7:04 PM EST
Astronomical Twilight 5:02 AM EST 7:35 PM EST
Moon 10:25 AM EST (3/7) 12:06 AM EST (3/7)
Length of Visible Light 12h 28m
Length of Day
11h 35m
Waxing Crescent, 42% of the Moon is Illuminated
Mar 7
Waxing Crescent
Mar 8
First Quarter
Mar 16
Full
Mar 23
Last Quarter
Mar 30
New

Hourly Weather History & Observations

Time (EST) Temp. Windchill Dew Point Humidity Pressure Visibility Wind Dir Wind Speed Gust Speed Precip Events Conditions
12:00 AM 32.0 °F 26.4 °F 22.5 °F 68% 30.38 in 10.0 mi ENE 5.8 mph - N/A   Overcast
12:20 AM 32.0 °F 24.8 °F 22.6 °F 68% 30.38 in 10.0 mi ENE 8.1 mph - N/A   Overcast
12:40 AM 31.8 °F 25.4 °F 23.0 °F 70% 30.36 in 10.0 mi ENE 6.9 mph - N/A   Overcast
1:00 AM 31.6 °F 25.1 °F 23.2 °F 71% 30.37 in 10.0 mi ENE 6.9 mph - N/A   Overcast
1:20 AM 31.6 °F 26.0 °F 23.5 °F 72% 30.36 in 10.0 mi NE 5.8 mph - N/A   Overcast
1:40 AM 31.3 °F 25.6 °F 23.7 °F 74% 30.33 in 10.0 mi NE 5.8 mph - N/A   Overcast
2:00 AM 31.1 °F 26.4 °F 23.5 °F 74% 30.32 in 10.0 mi NNE 4.6 mph - N/A   Overcast
2:20 AM 31.1 °F 26.4 °F 23.7 °F 74% 30.32 in 10.0 mi NE 4.6 mph - N/A   Overcast
2:40 AM 31.1 °F 24.5 °F 23.9 °F 75% 30.31 in 10.0 mi NNE 6.9 mph - N/A   Overcast
3:00 AM 31.1 °F 23.7 °F 23.7 °F 74% 30.30 in 10.0 mi NNE 8.1 mph - N/A   Overcast
3:20 AM 31.5 °F 24.9 °F 23.9 °F 74% 30.29 in 10.0 mi NNE 6.9 mph - N/A   Overcast
3:40 AM 31.5 °F 26.8 °F 24.1 °F 74% 30.28 in 10.0 mi NNE 4.6 mph - N/A   Overcast
4:00 AM 31.5 °F 25.8 °F 24.1 °F 74% 30.27 in 10.0 mi NNE 5.8 mph - N/A   Overcast
4:20 AM 31.6 °F 26.0 °F 24.3 °F 74% 30.28 in 10.0 mi NE 5.8 mph - N/A   Overcast
4:40 AM 31.8 °F 26.2 °F 24.3 °F 74% 30.27 in 10.0 mi NNE 5.8 mph - N/A   Overcast
5:00 AM 31.6 °F 27.0 °F 24.1 °F 74% 30.26 in 10.0 mi North 4.6 mph - N/A   Overcast
5:20 AM 31.6 °F 27.0 °F 23.9 °F 73% 30.27 in 10.0 mi NNE 4.6 mph - N/A   Overcast
5:40 AM 31.8 °F 27.3 °F 24.3 °F 74% 30.25 in 10.0 mi NNE 4.6 mph - N/A   Overcast
6:00 AM 31.8 °F 24.6 °F 24.6 °F 75% 30.24 in 10.0 mi NNE 8.1 mph - N/A   Mostly Cloudy
6:20 AM 32.0 °F 27.5 °F 24.6 °F 74% 30.24 in 10.0 mi North 4.6 mph - N/A   Mostly Cloudy
6:40 AM 32.0 °F 27.5 °F 24.8 °F 75% 30.25 in 10.0 mi NNE 4.6 mph - N/A   Mostly Cloudy
7:00 AM 32.0 °F 27.5 °F 25.0 °F 75% 30.25 in 10.0 mi North 4.6 mph - N/A   Overcast
7:20 AM 32.0 °F 26.4 °F 25.0 °F 75% 30.25 in 10.0 mi NNE 5.8 mph - N/A   Overcast
7:40 AM 32.2 °F 25.8 °F 25.0 °F 75% 30.24 in 10.0 mi North 6.9 mph - N/A   Overcast
8:00 AM 32.4 °F 26.0 °F 25.2 °F 75% 30.22 in 10.0 mi North 6.9 mph - N/A   Overcast
8:20 AM 32.9 °F 26.7 °F 25.5 °F 74% 30.20 in 10.0 mi NNE 6.9 mph - N/A   Mostly Cloudy
8:40 AM 33.4 °F 29.1 °F 25.9 °F 74% 30.20 in 10.0 mi NE 4.6 mph - N/A   Scattered Clouds
9:00 AM 34.3 °F 27.0 °F 26.4 °F 73% 30.20 in 10.0 mi NNE 9.2 mph - N/A   Clear
9:20 AM 34.7 °F 28.1 °F 26.6 °F 72% 30.20 in 10.0 mi NE 8.1 mph - N/A   Clear
9:40 AM 35.6 °F 29.9 °F 27.3 °F 72% 30.19 in 10.0 mi NNE 6.9 mph - N/A   Clear
10:00 AM 36.1 °F 28.7 °F 27.5 °F 71% 30.19 in 10.0 mi NNE 10.4 mph - N/A   Clear
10:20 AM 36.9 °F 31.4 °F 28.2 °F 71% 30.18 in 10.0 mi NNE 6.9 mph - N/A   Clear
10:40 AM 37.6 °F 32.3 °F 28.6 °F 70% 30.17 in 10.0 mi NE 6.9 mph - N/A   Clear
11:00 AM 38.8 °F 33.8 °F 29.5 °F 69% 30.17 in 10.0 mi North 6.9 mph - N/A   Clear
11:15 AM 39.0 °F 33.4 °F 29.3 °F 68% 30.17 in 10.0 mi NNE 8.1 mph - N/A   Clear
11:40 AM 39.4 °F 33.8 °F 29.5 °F 68% 30.15 in 10.0 mi NNE 8.1 mph - N/A   Clear
11:55 AM 40.8 °F 36.2 °F 30.2 °F 66% 30.14 in 10.0 mi NNE 6.9 mph - N/A   Clear
12:20 PM 41.7 °F 36.7 °F 29.8 °F 63% 30.13 in 10.0 mi NNE 8.1 mph - N/A   Clear
12:40 PM 42.6 °F 38.4 °F 30.4 °F 62% 30.12 in 10.0 mi NNE 6.9 mph - N/A   Clear
1:00 PM 43.0 °F 38.8 °F 30.2 °F 61% 30.11 in 10.0 mi NE 6.9 mph - N/A   Clear
1:20 PM 43.0 °F 38.8 °F 30.0 °F 60% 30.09 in 10.0 mi NE 6.9 mph - N/A   Clear
1:40 PM 43.0 °F 38.8 °F 29.8 °F 60% 30.09 in 10.0 mi NE 6.9 mph - N/A   Clear
2:00 PM 42.8 °F 40.1 °F 30.2 °F 61% 30.08 in 10.0 mi NNE 4.6 mph - N/A   Clear
2:15 PM 43.0 °F 38.8 °F 30.4 °F 61% 30.07 in 10.0 mi North 6.9 mph - N/A   Clear
2:40 PM 43.5 °F 39.4 °F 29.8 °F 59% 30.06 in 10.0 mi NNE 6.9 mph - N/A   Clear
3:00 PM 44.2 °F 39.7 °F 29.8 °F 57% 30.05 in 10.0 mi NNE 8.1 mph - N/A   Clear
3:20 PM 45.7 °F 42.7 °F 30.2 °F 55% 30.04 in 10.0 mi NNE 5.8 mph - N/A   Clear
3:40 PM 45.5 °F 41.3 °F 29.7 °F 54% 30.03 in 10.0 mi NNE 8.1 mph - N/A   Clear
4:00 PM 44.8 °F 41.0 °F 28.8 °F 53% 30.02 in 10.0 mi NNE 6.9 mph - N/A   Clear
4:20 PM 44.6 °F 39.2 °F 28.6 °F 53% 30.02 in 10.0 mi North 10.4 mph 16.1 mph N/A   Clear
4:40 PM 43.9 °F 39.3 °F 28.0 °F 54% 30.02 in 10.0 mi NNE 8.1 mph - N/A   Clear
5:00 PM 43.9 °F 39.9 °F 29.1 °F 56% 30.01 in 10.0 mi North 6.9 mph - N/A   Clear
5:20 PM 43.7 °F 40.3 °F 28.4 °F 55% 30.00 in 10.0 mi North 5.8 mph - N/A   Clear
5:40 PM 43.0 °F 38.2 °F 28.0 °F 56% 29.99 in 10.0 mi North 8.1 mph - N/A   Clear
6:00 PM 42.4 °F 37.5 °F 27.7 °F 56% 29.99 in 10.0 mi North 8.1 mph - N/A   Clear
6:20 PM 42.1 °F 37.7 °F 27.5 °F 56% 29.99 in 10.0 mi North 6.9 mph - N/A   Clear
6:40 PM 41.9 °F 38.2 °F 27.7 °F 57% 29.98 in 10.0 mi North 5.8 mph - N/A   Clear
7:00 PM 41.4 °F 38.4 °F 28.0 °F 59% 29.98 in 10.0 mi North 4.6 mph - N/A   Clear
7:20 PM 41.5 °F 38.6 °F 28.0 °F 59% 29.98 in 10.0 mi North 4.6 mph - N/A   Clear
7:40 PM 41.0 °F 36.4 °F 28.2 °F 60% 29.98 in 10.0 mi North 6.9 mph - N/A   Clear
8:00 PM 40.3 °F 35.5 °F 27.9 °F 61% 29.99 in 10.0 mi North 6.9 mph - N/A   Clear
8:20 PM 39.2 °F 35.0 °F 27.7 °F 63% 29.99 in 10.0 mi North 5.8 mph - N/A   Clear
8:40 PM 38.8 °F 35.4 °F 27.7 °F 64% 29.99 in 10.0 mi North 4.6 mph - N/A   Clear
9:00 PM 38.3 °F 34.8 °F 27.9 °F 66% 29.99 in 10.0 mi North 4.6 mph - N/A   Clear
9:20 PM 37.8 °F 35.3 °F 27.9 °F 67% 29.98 in 10.0 mi North 3.5 mph - N/A   Clear
9:40 PM 37.6 °F 35.1 °F 28.0 °F 68% 29.97 in 10.0 mi North 3.5 mph - N/A   Clear
10:00 PM 37.2 °F 34.7 °F 27.5 °F 68% 29.96 in 10.0 mi NNW 3.5 mph - N/A   Scattered Clouds
10:20 PM 37.6 °F 35.1 °F 27.9 °F 68% 29.96 in 10.0 mi North 3.5 mph - N/A   Mostly Cloudy
10:40 PM 37.0 °F 34.5 °F 27.5 °F 68% 29.96 in 10.0 mi NNW 3.5 mph - N/A   Mostly Cloudy
11:00 PM 37.4 °F - 27.7 °F 68% 29.96 in 10.0 mi Calm Calm - N/A   Overcast
11:20 PM 36.9 °F - 27.3 °F 68% 29.95 in 10.0 mi Calm Calm - N/A   Mostly Cloudy
11:40 PM 35.8 °F - 27.5 °F 72% 29.94 in 10.0 mi Calm Calm - N/A   Scattered Clouds